SCP
-0 0 0 -0 0 0 0 -0 0 0 0 0 0 0 0 0 0 -0 -0 -0 -0 -0 -0 -0 -0 0 0 -0 -0 -0 -0 -0 -0 -0 -0 -0 -0 0 0 0 -0 -0 -0
0 -0 -0 0 0 0 0 0 0 0 0 0 0 0 0 0 0 0 -0 -0 -0 -0 -0 -0 0 -0 -0 -0 -0 0 0 -0 0 -0 -0 -0 -0 0 -0 -0 -0 -0 -0
-0 0 -0 -0 0 -0 0 0 -0 0 0 0 0 0 0 0 0 0 -0 -0 -0 0 0 0 -0 -0 -0 -0 -0 0 -0 0 0 -0 -0 -0 -0 0 0 -0 -0 -0 -0
0 -0 0 -0 -0 -0 0 0 0 0 0 0 0 0 0 0 -0 -0 0 0 -0 0 0 -0 -0 -0 -0 0 0 -0 -0 0 0 -0 -0 -0 -0 -0 -0 -0 0 0 -0
0 0 -0 0 -0 -0 -0 0 0 0 0 0 0 0 -0 -0 0 -0 -0 0 0 0 -0 -0 -0 -0 -0 -0 -0 -0 -0 0 -0 -0 0 0 -0 0 -0 -0 -0 0 -0
0 0 -0 -0 -0 -0 0 0 0 0 -0 0 0 0 0 0 -0 0 -0 0 -0 -0 -0 -0 -0 -0 -0 -0 -0 -0 0 -0 -0 0 0 -0 -0 -0 0 -0 -0 -0 0
0 -0 -0 -0 0 0 0 0 0 0 -0 -0 0 -0 -0 -0 -0 -0 -0 -0 -0 -0 -0 -0 -0 0 0 0 0 0 -0 -0 -0 -0 0 -0 -0 -0 0 -0 -0 -0 0
0 0 -0 0 0 0 0 0 0 0 -0 -0 -0 0 0 0 0 0 0 -0 0 0 0 0 0 0 0 0 0 0 0 -0 -0 0 -0 -0 -0 0 0 0 -0 -0 0
0 -0 -0 -0 0 0 0 0 0 0 0 0 0 0 0 0 0 0 -0 0 0 -0 0 0 0 0 0 0 0 0 0 -0 -0 0 -0 -0 -0 -0 -0 -0 -0 -0 -0
0 -0 -0 -0 -0 0 0 0 0 0 0 0 0 0 -0 -0 -0 0 0 0 0 -0 -0 -0 -0 0 0 0 0 0 0 -0 -0 -0 -0 0 -0 0 -0 -0 -0 -0 -0
0 0 -0 -0 -0 -0 -0 -0 -0 0 -0 -0 -0 -0 -0 -0 -0 -0 -0 0 0 -0 -0 -0 -0 -0 -0 -0 -0 0 0 0 0 0 0 -0 -0 0 0 0 -0 0 0
-0 -0 -0 0 -0 -0 -0 -0 -0 -0 -0 -0 -0 -0 -0 0 0 0 0 0 0 -0 0 -0 -0 -0 -0 -0 0 -0 0 0 -0 0 0 -0 0 0 -0 -0 -0 0 -0
-0 -0 -0 -0 -0 -0 -0 -0 -0 0 -0 -0 -0 -0 -0 0 0 0 0 0 0 -0 0 -0 -0 -0 0 0 0 0 0 -0 -0 -0 0 -0 0 0 0 -0 0 0 0
-0 -0 0 -0 -0 -0 0 0 -0 -0 -0 -0 -0 -0 -0 0 0 0 0 -0 0 -0 0 0 0 0 0 0 0 0 0 0 0 0 0 -0 0 0 0 0 0 0 0
0 0 0 0 0 -0 -0 -0 -0 -0 0 -0 0 -0 0 0 0 0 0 -0 0 0 0 0 0 0 0 0 0 0 0 0 0 0 0 0 0 0 0 0 0 0 0
-0 -0 -0 0 0 -0 -0 -0 -0 -0 -0 -0 -0 0 -0 -0 -0 -0 0 0 0 0 0 0 0 0 0 0 -0 -0 0 0 0 0 0 0 0 0 0 0 0 0 0
-0 -0 -0 -0 -0 -0 0 -0 -0 -0 -0 -0 -0 0 0 0 0 -0 -0 -0 -0 0 -0 0 0 0 0 0 0 -0 0 0 0 0 0 0 0 0 0 0 0 0 0
-0 -0 -0 -0 -0 -0 -0 0 0 -0 -0 0 -0 -0 0 -0 -0 0 0 0 0 0 0 0 0 0 0 0 0 0 0 0 0 0 0 0 0 0 0 0 0 0 0
-0 -0 -0 -0 -0 -0 -0 -0 -0 0 0 -0 -0 0 0 0 0 0 0 -0 0 0 0 0 0 0 0 0 0 0 0 0 0 0 0 0 0 0 0 0 0 0 0
-0 -0 -0 -0 -0 -0 -0 -0 -0 0 0 0 0 0 0 0 0 0 0 0 -0 -0 -0 0 0 0 0 0 0 0 0 0 -0 0 0 0 0 0 0 0 1 0 0
-0 -0 -0 -0 -0 -0 -0 -0 0 0 0 0 0 0 0 0 0 0 0 0 0 0 0 -0 0 0 0 0 1 0 0 1 0 0 0 0 0 0 0 0 1 0 0
-0 -0 -0 -0 -0 0 0 0 0 0 0 1 0 0 1 0 0 0 0 0 0 0 -0 -0 -0 0 0 0 0 1 0 0 1 0 0 0 0 0 0 0 0 0 0
0 0 -0 0 -0 0 -0 0 0 0 0 0 0 0 1 0 1 0 0 0 0 1 0 0 0 0 1 0 -0 1 1 0 0 0 1 0 1 0 0 0 1 1 1
0 0 -0 -0 -0 -0 0 0 0 -0 0 0 1 1 1 1 1 1 1 1 1 0 1 0 0 0 0 1 0 0 1 0 0 0 0 1 2 1 1 1 0 1 1
0 0 0 -0 -0 -0 0 -0 0 1 1 1 1 1 2 2 2 1 2 1 1 1 1 1 1 1 1 1 1 0 1 1 1 1 0 0 0 1 0 1 0 0 1
0 0 0 0 0 0 0 1 1 1 1 1 1 1 0 0 0 0 0 1 2 1 1 1 1 1 1 1 1 2 1 1 1 2 1 1 1 1 1 1 1 1 0
Wind_Speed_500mb
31 31 30 34 34 38 43 45 47 46 43 45 47 48 45 39 32 29 27 26 25 24 22 22 24 27 27 23 22 24 25 26 27 27 28 28 32 37 35 36 26 19 22
39 35 35 37 36 42 43 44 42 40 41 43 43 42 38 29 26 26 28 27 26 25 25 24 22 21 19 20 24 26 30 25 29 30 25 24 29 28 26 32 26 21 21
44 40 34 39 37 38 43 46 39 40 41 39 40 37 27 22 21 25 25 25 22 22 19 17 18 17 19 22 25 29 29 31 41 38 34 19 20 22 23 16 13 18 21
37 30 25 36 35 38 41 49 42 38 38 38 36 31 21 19 23 25 25 24 22 17 18 20 22 24 24 26 26 26 27 40 33 23 17 16 12 21 19 19 20 19 15
33 31 26 34 34 34 37 45 41 37 40 38 32 25 22 21 21 22 21 21 19 17 18 21 26 21 22 23 19 21 30 35 34 26 17 13 10 14 16 18 19 18 25
32 32 31 36 35 38 39 44 37 35 34 31 25 25 24 26 25 25 23 19 23 20 20 23 26 25 24 23 22 20 24 31 27 11 19 16 16 10 15 14 12 13 14
39 29 33 35 34 36 41 42 36 34 29 26 25 28 26 23 23 18 17 18 18 20 19 19 24 23 20 19 19 19 18 21 23 9 9 9 1 10 14 11 10 11 11
33 33 28 32 32 34 36 38 35 33 28 25 27 24 21 21 20 17 16 16 16 18 18 16 15 13 13 12 12 14 14 16 15 7 9 5 5 6 10 8 9 8 7
34 30 27 27 30 31 33 32 31 32 29 24 20 18 17 15 16 16 14 14 14 13 12 10 7 5 7 7 7 9 15 20 21 3 6 6 13 4 4 5 6 6 4
31 28 27 23 26 29 31 31 30 32 32 23 18 14 13 11 15 19 9 9 9 9 6 6 3 2 2 3 3 7 16 16 11 2 6 7 12 7 4 2 2 4 4
28 30 28 24 27 29 30 30 28 29 33 27 18 14 15 6 12 12 12 8 6 7 9 7 4 5 6 3 4 3 9 9 2 4 7 12 14 10 6 3 2 1 2
26 27 24 27 26 25 24 23 22 19 23 20 17 15 10 10 16 6 7 10 14 15 11 15 15 10 4 5 16 14 2 8 4 2 14 15 18 12 8 6 4 5 4
29 27 24 24 23 22 23 18 12 18 18 19 21 18 12 10 10 6 11 11 14 16 11 17 18 11 8 11 13 14 17 7 9 8 17 22 20 14 10 6 5 6 7
30 26 26 20 31 22 17 19 16 17 18 17 19 23 21 14 16 16 12 11 16 7 11 13 11 14 15 11 15 17 15 13 14 14 18 21 22 16 12 8 7 6 6
30 28 26 23 26 23 24 16 16 16 13 14 18 22 19 17 17 17 17 16 16 16 17 15 14 17 16 18 15 19 20 21 22 19 25 16 24 23 18 12 11 12 9
28 26 25 24 22 21 23 20 18 16 14 20 16 17 27 20 19 19 20 19 21 19 19 20 14 16 16 20 14 18 22 25 25 27 25 20 23 25 23 21 16 13 12
27 26 25 24 22 22 20 18 17 17 18 17 18 23 24 25 24 27 23 25 25 28 26 26 28 24 19 21 23 23 25 25 29 31 31 29 28 28 26 24 22 17 16
26 27 25 22 23 22 22 20 18 18 20 21 23 24 26 28 30 30 28 28 27 29 27 28 26 24 26 21 22 21 26 27 30 33 34 32 32 30 35 31 30 28 26
29 28 26 23 23 23 20 19 21 22 23 23 24 26 28 30 31 34 33 33 35 33 35 34 30 30 27 28 26 34 35 31 34 34 37 38 40 41 31 38 34 34 35
30 28 26 23 21 22 19 21 21 21 22 21 24 25 29 31 34 38 37 40 41 37 37 39 41 39 36 36 32 32 34 34 29 36 39 41 43 45 38 42 45 45 43
30 29 27 25 24 25 22 21 20 21 23 22 23 27 29 31 36 41 45 45 42 40 41 48 52 52 51 41 42 40 37 47 39 42 42 42 44 48 49 50 53 49 45
31 29 27 26 27 30 21 19 22 19 18 22 26 30 30 35 41 44 46 52 49 46 43 56 50 53 53 46 46 38 35 37 52 46 45 41 43 45 49 53 58 56 55
32 30 29 26 25 26 25 22 21 20 20 19 22 24 28 30 40 40 44 50 48 46 54 58 56 58 57 49 45 44 23 34 37 38 44 41 41 42 48 51 55 57 57
34 31 28 27 26 24 26 24 27 23 22 20 22 25 27 28 40 40 47 49 48 44 49 54 55 56 57 61 59 53 60 50 42 43 42 38 46 44 46 52 51 55 60
37 34 30 27 26 24 21 20 19 16 15 17 21 27 32 46 49 34 46 40 45 47 49 52 55 57 56 59 60 66 59 54 57 53 56 51 44 44 41 40 42 48 52
40 37 34 30 25 23 21 19 18 25 23 21 27 41 38 40 42 44 42 49 44 46 50 51 57 59 61 61 61 64 65 64 61 57 55 59 59 54 50 46 47 42 42
Wind_Direction_500mb
135 123 126 128 126 125 125 127 124 127 125 124 127 124 120 110 98 98 98 97 105 112 106 94 100 103 100 103 100 90 93 95 107 107 103 102 108 104 106 97 80 108 104
137 129 136 135 130 133 129 129 128 126 127 128 129 127 124 110 100 95 96 93 98 103 100 91 104 99 105 101 100 94 89 91 91 87 87 101 114 113 101 115 130 97 98
136 129 131 138 140 136 130 132 130 126 129 130 133 133 124 108 103 101 95 88 92 98 97 100 92 97 96 98 101 104 95 88 88 86 92 75 100 111 121 121 117 100 96
134 134 143 146 143 139 134 136 132 128 135 137 134 128 117 107 106 97 100 98 91 86 90 90 94 91 91 87 94 99 97 96 89 81 88 95 94 100 102 100 94 105 106
134 135 155 141 142 139 139 142 136 134 132 132 131 128 118 110 101 92 88 88 90 85 83 96 102 102 97 96 102 110 105 95 79 60 100 101 102 103 102 99 79 98 107
132 135 144 143 142 143 143 145 143 140 131 131 128 123 115 103 91 77 74 78 78 73 89 101 110 107 95 93 92 96 102 93 78 76 89 106 152 106 112 114 116 99 114
136 143 141 146 145 144 146 151 145 145 136 131 125 119 114 102 91 80 79 81 74 76 91 105 113 107 95 88 89 90 101 89 85 92 104 85 219 116 96 108 117 99 90
133 138 142 141 146 149 153 158 150 150 143 135 130 122 110 95 80 66 67 81 80 80 90 104 114 103 93 89 87 84 81 108 92 94 93 232 352 103 123 115 104 92 88
128 135 137 143 149 154 157 160 165 170 162 145 133 127 111 95 67 61 67 65 75 77 86 101 117 107 89 82 92 81 72 101 103 119 91 222 353 1 88 103 116 110 115
128 133 139 142 143 151 163 163 170 180 179 167 152 141 114 79 31 32 36 58 59 61 74 112 170 190 269 36 86 80 91 88 91 36 111 259 327 338 2 37 100 105 94
137 139 146 148 152 154 161 171 173 183 192 193 186 166 99 97 11 326 331 321 1 22 22 3 313 260 249 287 345 348 127 343 109 198 216 295 330 334 330 334 314 172 119
144 144 147 143 145 144 148 171 170 182 188 191 196 221 137 207 208 208 298 334 344 349 358 357 346 309 322 274 299 324 157 336 234 241 257 294 317 315 311 307 290 276 259
147 148 150 157 139 137 166 151 167 189 190 197 204 213 215 235 249 267 266 322 339 342 289 332 353 4 258 245 244 246 259 255 254 223 281 290 304 302 295 297 297 293 282
152 156 152 165 158 159 158 155 176 192 198 212 231 232 214 251 254 238 240 247 273 249 243 266 259 261 262 244 258 243 248 252 252 247 268 288 307 290 294 293 300 293 288
158 161 162 167 164 175 172 179 183 195 207 225 231 250 236 246 253 259 263 256 255 267 262 240 263 256 259 263 244 255 245 239 251 268 265 268 294 286 277 278 295 279 269
165 168 174 175 183 186 186 176 200 203 217 223 235 248 269 246 254 260 271 274 267 262 272 270 260 246 265 264 239 260 248 243 244 250 262 259 287 292 270 269 276 285 265
176 177 182 182 190 191 193 207 204 214 236 229 244 245 248 258 264 252 256 261 266 271 246 268 265 251 261 255 267 225 244 255 249 248 250 273 269 276 288 266 267 274 278
180 182 183 189 198 201 216 205 215 232 230 242 245 249 257 253 251 248 256 260 261 261 260 261 265 267 267 285 260 256 243 257 254 252 253 249 255 252 270 274 280 274 273
182 187 190 194 197 204 217 218 231 236 245 245 250 255 257 257 258 258 258 260 258 256 257 269 265 259 257 256 262 275 279 250 252 255 255 251 251 248 244 268 271 271 273
189 193 197 203 206 208 207 227 226 238 247 253 254 255 255 257 258 259 262 262 259 260 260 255 257 251 253 256 251 259 266 277 254 256 255 253 251 251 253 248 261 263 270
191 196 202 207 220 211 218 234 233 242 250 253 259 259 259 263 258 255 262 259 258 254 254 251 250 252 252 245 258 261 254 266 262 251 254 255 253 252 250 247 247 249 257
197 202 208 209 218 221 221 228 240 253 272 273 272 273 272 269 275 271 270 277 268 270 241 259 257 259 260 249 249 247 256 264 258 248 247 248 252 251 252 249 247 248 242
202 207 210 212 211 218 209 238 244 257 276 288 278 278 277 282 293 288 282 285 283 270 269 272 269 263 262 262 253 237 234 242 259 256 244 244 246 250 249 248 247 250 255
202 204 206 209 212 216 221 222 232 246 265 280 294 289 300 296 292 289 291 288 286 282 276 279 283 275 268 261 252 248 246 248 260 270 252 245 248 240 244 241 242 249 247
193 196 199 200 206 201 232 214 235 266 274 285 291 299 307 312 310 298 305 298 295 293 286 285 281 278 276 270 261 254 247 252 252 249 256 257 248 245 250 250 239 239 243
192 192 194 199 210 220 220 233 235 234 261 290 290 297 310 303 301 298 294 279 279 290 293 286 280 277 276 275 273 267 261 254 244 243 248 252 254 254 247 236 242 244 236
Wind_Speed_850mb
31 31 30 34 34 38 43 45 47 46 43 45 47 48 45 39 32 29 27 26 25 24 22 22 24 27 27 23 22 24 25 26 27 27 28 28 32 37 35 36 26 19 22
39 35 35 37 36 42 43 44 42 40 41 43 43 42 38 29 26 26 28 27 26 25 25 24 22 21 19 20 24 26 30 25 29 30 25 24 29 28 26 32 26 21 21
44 40 34 39 37 38 43 46 39 40 41 39 40 37 27 22 21 25 25 25 22 22 19 17 18 17 19 22 25 29 29 31 41 38 34 19 20 22 23 16 13 18 21
37 30 25 36 35 38 41 49 42 38 38 38 36 31 21 19 23 25 25 24 22 17 18 20 22 24 24 26 26 26 27 40 33 23 17 16 12 21 19 19 20 19 15
33 31 26 34 34 34 37 45 41 37 40 38 32 25 22 21 21 22 21 21 19 17 18 21 26 21 22 23 19 21 30 35 34 26 17 13 10 14 16 18 19 18 25
32 32 31 36 35 38 39 44 37 35 34 31 25 25 24 26 25 25 23 19 23 20 20 23 26 25 24 23 22 20 24 31 27 11 19 16 16 10 15 14 12 13 14
39 29 33 35 34 36 41 42 36 34 29 26 25 28 26 23 23 18 17 18 18 20 19 19 24 23 20 19 19 19 18 21 23 9 9 9 1 10 14 11 10 11 11
33 33 28 32 32 34 36 38 35 33 28 25 27 24 21 21 20 17 16 16 16 18 18 16 15 13 13 12 12 14 14 16 15 7 9 5 5 6 10 8 9 8 7
34 30 27 27 30 31 33 32 31 32 29 24 20 18 17 15 16 16 14 14 14 13 12 10 7 5 7 7 7 9 15 20 21 3 6 6 13 4 4 5 6 6 4
31 28 27 23 26 29 31 31 30 32 32 23 18 14 13 11 15 19 9 9 9 9 6 6 3 2 2 3 3 7 16 16 11 2 6 7 12 7 4 2 2 4 4
28 30 28 24 27 29 30 30 28 29 33 27 18 14 15 6 12 12 12 8 6 7 9 7 4 5 6 3 4 3 9 9 2 4 7 12 14 10 6 3 2 1 2
26 27 24 27 26 25 24 23 22 19 23 20 17 15 10 10 16 6 7 10 14 15 11 15 15 10 4 5 16 14 2 8 4 2 14 15 18 12 8 6 4 5 4
29 27 24 24 23 22 23 18 12 18 18 19 21 18 12 10 10 6 11 11 14 16 11 17 18 11 8 11 13 14 17 7 9 8 17 22 20 14 10 6 5 6 7
30 26 26 20 31 22 17 19 16 17 18 17 19 23 21 14 16 16 12 11 16 7 11 13 11 14 15 11 15 17 15 13 14 14 18 21 22 16 12 8 7 6 6
30 28 26 23 26 23 24 16 16 16 13 14 18 22 19 17 17 17 17 16 16 16 17 15 14 17 16 18 15 19 20 21 22 19 25 16 24 23 18 12 11 12 9
28 26 25 24 22 21 23 20 18 16 14 20 16 17 27 20 19 19 20 19 21 19 19 20 14 16 16 20 14 18 22 25 25 27 25 20 23 25 23 21 16 13 12
27 26 25 24 22 22 20 18 17 17 18 17 18 23 24 25 24 27 23 25 25 28 26 26 28 24 19 21 23 23 25 25 29 31 31 29 28 28 26 24 22 17 16
26 27 25 22 23 22 22 20 18 18 20 21 23 24 26 28 30 30 28 28 27 29 27 28 26 24 26 21 22 21 26 27 30 33 34 32 32 30 35 31 30 28 26
29 28 26 23 23 23 20 19 21 22 23 23 24 26 28 30 31 34 33 33 35 33 35 34 30 30 27 28 26 34 35 31 34 34 37 38 40 41 31 38 34 34 35
30 28 26 23 21 22 19 21 21 21 22 21 24 25 29 31 34 38 37 40 41 37 37 39 41 39 36 36 32 32 34 34 29 36 39 41 43 45 38 42 45 45 43
30 29 27 25 24 25 22 21 20 21 23 22 23 27 29 31 36 41 45 45 42 40 41 48 52 52 51 41 42 40 37 47 39 42 42 42 44 48 49 50 53 49 45
31 29 27 26 27 30 21 19 22 19 18 22 26 30 30 35 41 44 46 52 49 46 43 56 50 53 53 46 46 38 35 37 52 46 45 41 43 45 49 53 58 56 55
32 30 29 26 25 26 25 22 21 20 20 19 22 24 28 30 40 40 44 50 48 46 54 58 56 58 57 49 45 44 23 34 37 38 44 41 41 42 48 51 55 57 57
34 31 28 27 26 24 26 24 27 23 22 20 22 25 27 28 40 40 47 49 48 44 49 54 55 56 57 61 59 53 60 50 42 43 42 38 46 44 46 52 51 55 60
37 34 30 27 26 24 21 20 19 16 15 17 21 27 32 46 49 34 46 40 45 47 49 52 55 57 56 59 60 66 59 54 57 53 56 51 44 44 41 40 42 48 52
40 37 34 30 25 23 21 19 18 25 23 21 27 41 38 40 42 44 42 49 44 46 50 51 57 59 61 61 61 64 65 64 61 57 55 59 59 54 50 46 47 42 42
Wind_Direction_850mb
135 123 126 128 126 125 125 127 124 127 125 124 127 124 120 110 98 98 98 97 105 112 106 94 100 103 100 103 100 90 93 95 107 107 103 102 108 104 106 97 80 108 104
137 129 136 135 130 133 129 129 128 126 127 128 129 127 124 110 100 95 96 93 98 103 100 91 104 99 105 101 100 94 89 91 91 87 87 101 114 113 101 115 130 97 98
136 129 131 138 140 136 130 132 130 126 129 130 133 133 124 108 103 101 95 88 92 98 97 100 92 97 96 98 101 104 95 88 88 86 92 75 100 111 121 121 117 100 96
134 134 143 146 143 139 134 136 132 128 135 137 134 128 117 107 106 97 100 98 91 86 90 90 94 91 91 87 94 99 97 96 89 81 88 95 94 100 102 100 94 105 106
134 135 155 141 142 139 139 142 136 134 132 132 131 128 118 110 101 92 88 88 90 85 83 96 102 102 97 96 102 110 105 95 79 60 100 101 102 103 102 99 79 98 107
132 135 144 143 142 143 143 145 143 140 131 131 128 123 115 103 91 77 74 78 78 73 89 101 110 107 95 93 92 96 102 93 78 76 89 106 152 106 112 114 116 99 114
136 143 141 146 145 144 146 151 145 145 136 131 125 119 114 102 91 80 79 81 74 76 91 105 113 107 95 88 89 90 101 89 85 92 104 85 219 116 96 108 117 99 90
133 138 142 141 146 149 153 158 150 150 143 135 130 122 110 95 80 66 67 81 80 80 90 104 114 103 93 89 87 84 81 108 92 94 93 232 352 103 123 115 104 92 88
128 135 137 143 149 154 157 160 165 170 162 145 133 127 111 95 67 61 67 65 75 77 86 101 117 107 89 82 92 81 72 101 103 119 91 222 353 1 88 103 116 110 115
128 133 139 142 143 151 163 163 170 180 179 167 152 141 114 79 31 32 36 58 59 61 74 112 170 190 269 36 86 80 91 88 91 36 111 259 327 338 2 37 100 105 94
137 139 146 148 152 154 161 171 173 183 192 193 186 166 99 97 11 326 331 321 1 22 22 3 313 260 249 287 345 348 127 343 109 198 216 295 330 334 330 334 314 172 119
144 144 147 143 145 144 148 171 170 182 188 191 196 221 137 207 208 208 298 334 344 349 358 357 346 309 322 274 299 324 157 336 234 241 257 294 317 315 311 307 290 276 259
147 148 150 157 139 137 166 151 167 189 190 197 204 213 215 235 249 267 266 322 339 342 289 332 353 4 258 245 244 246 259 255 254 223 281 290 304 302 295 297 297 293 282
152 156 152 165 158 159 158 155 176 192 198 212 231 232 214 251 254 238 240 247 273 249 243 266 259 261 262 244 258 243 248 252 252 247 268 288 307 290 294 293 300 293 288
158 161 162 167 164 175 172 179 183 195 207 225 231 250 236 246 253 259 263 256 255 267 262 240 263 256 259 263 244 255 245 239 251 268 265 268 294 286 277 278 295 279 269
165 168 174 175 183 186 186 176 200 203 217 223 235 248 269 246 254 260 271 274 267 262 272 270 260 246 265 264 239 260 248 243 244 250 262 259 287 292 270 269 276 285 265
176 177 182 182 190 191 193 207 204 214 236 229 244 245 248 258 264 252 256 261 266 271 246 268 265 251 261 255 267 225 244 255 249 248 250 273 269 276 288 266 267 274 278
180 182 183 189 198 201 216 205 215 232 230 242 245 249 257 253 251 248 256 260 261 261 260 261 265 267 267 285 260 256 243 257 254 252 253 249 255 252 270 274 280 274 273
182 187 190 194 197 204 217 218 231 236 245 245 250 255 257 257 258 258 258 260 258 256 257 269 265 259 257 256 262 275 279 250 252 255 255 251 251 248 244 268 271 271 273
189 193 197 203 206 208 207 227 226 238 247 253 254 255 255 257 258 259 262 262 259 260 260 255 257 251 253 256 251 259 266 277 254 256 255 253 251 251 253 248 261 263 270
191 196 202 207 220 211 218 234 233 242 250 253 259 259 259 263 258 255 262 259 258 254 254 251 250 252 252 245 258 261 254 266 262 251 254 255 253 252 250 247 247 249 257
197 202 208 209 218 221 221 228 240 253 272 273 272 273 272 269 275 271 270 277 268 270 241 259 257 259 260 249 249 247 256 264 258 248 247 248 252 251 252 249 247 248 242
202 207 210 212 211 218 209 238 244 257 276 288 278 278 277 282 293 288 282 285 283 270 269 272 269 263 262 262 253 237 234 242 259 256 244 244 246 250 249 248 247 250 255
202 204 206 209 212 216 221 222 232 246 265 280 294 289 300 296 292 289 291 288 286 282 276 279 283 275 268 261 252 248 246 248 260 270 252 245 248 240 244 241 242 249 247
193 196 199 200 206 201 232 214 235 266 274 285 291 299 307 312 310 298 305 298 295 293 286 285 281 278 276 270 261 254 247 252 252 249 256 257 248 245 250 250 239 239 243
192 192 194 199 210 220 220 233 235 234 261 290 290 297 310 303 301 298 294 279 279 290 293 286 280 277 276 275 273 267 261 254 244 243 248 252 254 254 247 236 242 244 236